,,PressureMeas_1m,,PRMeasQMR101_1,,RHStat155_1m_1,,SRMeasQMS101R_1m,,TAStat155_1m_1,,GenWind_1,,GenWind_1,
2019-02-22, 00:00:06,VALID,919.848,VALID,0.0,VALID,90.408,VALID,0.007,VALID,21.499,VALID,103.0,VALID,0.0,
2019-02-22, 00:01:06,VALID,919.844,VALID,0.0,VALID,90.691,VALID,0.014,VALID,21.447,VALID,97.0,VALID,0.0,
2019-02-22, 00:02:06,VALID,919.827,VALID,0.0,VALID,91.097,VALID,0.012,VALID,21.378,VALID,103.0,VALID,0.0,
2019-02-22, 00:03:06,VALID,919.829,VALID,0.0,VALID,91.381,VALID,0.025,VALID,21.332,VALID,101.0,VALID,0.0,
2019-02-22, 00:04:06,VALID,919.801,VALID,0.0,VALID,91.623,VALID,0.018,VALID,21.349,VALID,91.0,VALID,0.0,
2019-02-22, 00:05:06,VALID,919.776,VALID,0.0,VALID,91.683,VALID,0.008,VALID,21.345,VALID,83.0,VALID,0.0,
2019-02-22, 00:06:06,VALID,919.763,VALID,0.0,VALID,91.602,VALID,-0.005,VALID,21.349,VALID,90.0,VALID,0.0,
2019-02-22, 00:07:06,VALID,919.732,VALID,0.0,VALID,91.659,VALID,-0.001,VALID,21.357,VALID,87.0,VALID,0.0,
2019-02-22, 00:08:06,VALID,919.719,VALID,0.0,VALID,91.52,VALID,-0.004,VALID,21.344,VALID,80.0,VALID,0.0,
2019-02-22, 00:09:06,VALID,919.696,VALID,0.0,VALID,91.27,VALID,0.001,VALID,21.388,VALID,66.0,VALID,0.0,
2019-02-22, 00:10:06,VALID,919.685,VALID,0.0,VALID,91.136,VALID,-0.005,VALID,21.41,VALID,49.0,VALID,0.0,
2019-02-22, 00:11:06,VALID,919.663,VALID,0.0,VALID,91.316,VALID,0.002,VALID,21.393,VALID,24.0,VALID,0.0,
2019-02-22, 00:12:06,VALID,919.617,VALID,0.0,VALID,91.411,VALID,0.008,VALID,21.363,VALID,20.0,VALID,0.0,
2019-02-22, 00:13:06,VALID,919.579,VALID,0.0,VALID,91.504,VALID,-0.011,VALID,21.335,VALID,12.0,VALID,0.0,
2019-02-22, 00:14:06,VALID,919.557,VALID,0.0,VALID,91.713,VALID,-0.01,VALID,21.288,VALID,40.0,VALID,0.0,
2019-02-22, 00:15:06,VALID,919.532,VALID,0.0,VALID,91.951,VALID,-0.021,VALID,21.246,VALID,67.0,VALID,0.0,
2019-02-22, 00:16:06,VALID,919.538,VALID,0.0,VALID,92.081,VALID,0.004,VALID,21.216,VALID,73.0,VALID,0.0,
2019-02-22, 00:17:06,VALID,919.562,VALID,0.0,VALID,92.219,VALID,-0.004,VALID,21.198,VALID,71.0,VALID,0.0,
2019-02-22, 00:18:06,VALID,919.593,VALID,0.0,VALID,92.361,VALID,-0.0,VALID,21.172,VALID,68.0,VALID,0.0,
2019-02-22, 00:19:06,VALID,919.616,VALID,0.0,VALID,92.388,VALID,0.011,VALID,21.184,VALID,71.0,VALID,0.0,
2019-02-22, 00:20:06,VALID,919.638,VALID,0.0,VALID,92.355,VALID,0.007,VALID,21.212,VALID,80.0,VALID,0.0,
2019-02-22, 00:21:06,VALID,919.677,VALID,0.0,VALID,92.332,VALID,-0.012,VALID,21.215,VALID,94.0,VALID,0.0,
2019-02-22, 00:22:06,VALID,919.71,VALID,0.0,VALID,92.507,VALID,0.006,VALID,21.182,VALID,103.0,VALID,0.0,
2019-02-22, 00:23:06,VALID,919.751,VALID,0.0,VALID,92.608,VALID,0.013,VALID,21.178,VALID,122.0,VALID,0.0,
2019-02-22, 00:24:06,VALID,919.74,VALID,0.0,VALID,92.824,VALID,-0.004,VALID,21.167,VALID,135.0,VALID,0.0,
2019-02-22, 00:25:06,VALID,919.745,VALID,0.0,VALID,92.884,VALID,-0.012,VALID,21.168,VALID,135.0,VALID,0.0,
2019-02-22, 00:26:06,VALID,919.746,VALID,0.0,VALID,92.804,VALID,-0.019,VALID,21.196,VALID,132.0,VALID,0.0,
2019-02-22, 00:27:06,VALID,919.726,VALID,0.0,VALID,92.679,VALID,-0.022,VALID,21.227,VALID,132.0,VALID,0.0,
2019-02-22, 00:28:06,VALID,919.702,VALID,0.0,VALID,92.778,VALID,-0.007,VALID,21.246,VALID,172.0,VALID,0.0,
2019-02-22, 00:29:06,VALID,919.672,VALID,0.0,VALID,92.973,VALID,-0.006,VALID,21.245,VALID,141.0,VALID,0.0,
2019-02-22, 00:30:06,VALID,919.669,VALID,0.0,VALID,93.261,VALID,0.005,VALID,21.21,VALID,141.0,VALID,0.0,
2019-02-22, 00:31:06,VALID,919.643,VALID,0.0,VALID,93.456,VALID,0.006,VALID,21.176,VALID,127.0,VALID,0.0,
2019-02-22, 00:32:06,VALID,919.624,VALID,0.0,VALID,93.442,VALID,0.016,VALID,21.171,VALID,127.0,VALID,0.0,
2019-02-22, 00:33:06,VALID,919.598,VALID,0.0,VALID,93.367,VALID,0.018,VALID,21.151,VALID,122.0,VALID,0.0,
2019-02-22, 00:34:06,VALID,919.576,VALID,0.0,VALID,93.145,VALID,0.022,VALID,21.183,VALID,131.0,VALID,0.0,
2019-02-22, 00:35:06,VALID,919.583,VALID,0.0,VALID,92.705,VALID,0.022,VALID,21.237,VALID,123.0,VALID,0.0,
2019-02-22, 00:36:06,VALID,919.601,VALID,0.0,VALID,92.222,VALID,0.017,VALID,21.294,VALID,123.0,VALID,0.0,
2019-02-22, 00:37:06,VALID,919.624,VALID,0.0,VALID,91.588,VALID,-0.004,VALID,21.386,VALID,142.0,VALID,0.0,
2019-02-22, 00:38:06,VALID,919.63,VALID,0.0,VALID,91.176,VALID,0.018,VALID,21.455,VALID,144.0,VALID,0.0,
2019-02-22, 00:39:06,VALID,919.667,VALID,0.0,VALID,91.315,VALID,0.007,VALID,21.487,VALID,122.0,VALID,0.0,
2019-02-22, 00:40:06,VALID,919.699,VALID,0.0,VALID,91.699,VALID,0.008,VALID,21.498,VALID,83.0,VALID,0.0,
2019-02-22, 00:41:06,VALID,919.73,VALID,0.0,VALID,91.408,VALID,-0.003,VALID,21.471,VALID,126.0,VALID,0.0,
2019-02-22, 00:42:06,VALID,919.736,VALID,0.0,VALID,91.301,VALID,-0.0,VALID,21.476,VALID,160.0,VALID,0.0,
2019-02-22, 00:43:06,VALID,919.734,VALID,0.0,VALID,91.038,VALID,0.003,VALID,21.506,VALID,132.0,VALID,0.0,
2019-02-22, 00:44:06,VALID,919.742,VALID,0.0,VALID,91.177,VALID,0.007,VALID,21.51,VALID,119.0,VALID,0.0,
2019-02-22, 00:45:06,VALID,919.738,VALID,0.0,VALID,91.551,VALID,0.001,VALID,21.493,VALID,83.0,VALID,0.0,
2019-02-22, 00:46:06,VALID,919.745,VALID,0.0,VALID,91.959,VALID,-0.001,VALID,21.448,VALID,87.0,VALID,0.0,
2019-02-22, 00:47:06,VALID,919.72,VALID,0.0,VALID,92.015,VALID,-0.01,VALID,21.398,VALID,118.0,VALID,0.0,
2019-02-22, 00:48:06,VALID,919.701,VALID,0.0,VALID,92.142,VALID,0.006,VALID,21.352,VALID,115.0,VALID,0.0,
2019-02-22, 00:49:06,VALID,919.709,VALID,0.0,VALID,92.455,VALID,0.004,VALID,21.302,VALID,89.0,VALID,0.0,
2019-02-22, 00:50:06,VALID,919.671,VALID,0.0,VALID,92.675,VALID,-0.002,VALID,21.274,VALID,69.0,VALID,0.0,
2019-02-22, 00:51:06,VALID,919.668,VALID,0.0,VALID,93.124,VALID,0.006,VALID,21.246,VALID,67.0,VALID,0.0,
2019-02-22, 00:52:06,VALID,919.659,VALID,0.0,VALID,93.058,VALID,0.016,VALID,21.209,VALID,95.0,VALID,0.0,
2019-02-22, 00:53:06,VALID,919.647,VALID,0.0,VALID,93.108,VALID,0.017,VALID,21.195,VALID,96.0,VALID,0.0,
2019-02-22, 00:54:06,VALID,919.646,VALID,0.0,VALID,93.188,VALID,0.016,VALID,21.184,VALID,119.0,VALID,0.0,
2019-02-22, 00:55:06,VALID,919.676,VALID,0.0,VALID,93.314,VALID,0.019,VALID,21.168,VALID,100.0,VALID,0.0,
2019-02-22, 00:56:06,VALID,919.683,VALID,0.0,VALID,93.432,VALID,0.015,VALID,21.16,VALID,102.0,VALID,0.0,
2019-02-22, 00:57:06,VALID,919.661,VALID,0.0,VALID,93.734,VALID,0.011,VALID,21.117,VALID,106.0,VALID,0.0,
2019-02-22, 00:58:06,VALID,919.628,VALID,0.0,VALID,93.804,VALID,-0.009,VALID,21.072,VALID,108.0,VALID,0.0,
2019-02-22, 00:59:06,VALID,919.607,VALID,0.0,VALID,94.276,VALID,-0.005,VALID,21.025,VALID,101.0,VALID,0.0,
2019-02-22, 01:00:06,VALID,919.557,VALID,0.0,VALID,94.895,VALID,-0.017,VALID,20.942,VALID,118.0,VALID,0.0,
2019-02-22, 01:01:06,VALID,919.527,VALID,0.0,VALID,95.56,VALID,0.001,VALID,20.912,VALID,132.0,VALID,0.0,
2019-02-22, 01:02:06,VALID,919.515,VALID,0.0,VALID,96.166,VALID,-0.009,VALID,20.909,VALID,132.0,VALID,0.0,
2019-02-22, 01:03:06,VALID,919.497,VALID,0.0,VALID,96.088,VALID,-0.012,VALID,20.85,VALID,159.0,VALID,0.0,
2019-02-22, 01:04:06,VALID,919.485,VALID,0.0,VALID,96.259,VALID,0.002,VALID,20.811,VALID,168.0,VALID,0.0,
2019-02-22, 01:05:06,VALID,919.463,VALID,0.0,VALID,96.218,VALID,-0.003,VALID,20.761,VALID,150.0,VALID,0.0,
2019-02-22, 01:06:06,VALID,919.455,VALID,0.0,VALID,96.536,VALID,-0.009,VALID,20.768,VALID,130.0,VALID,0.0,
2019-02-22, 01:07:06,VALID,919.436,VALID,0.0,VALID,96.701,VALID,-0.011,VALID,20.748,VALID,152.0,VALID,0.0,
2019-02-22, 01:08:06,VALID,919.431,VALID,0.0,VALID,96.838,VALID,-0.005,VALID,20.73,VALID,148.0,VALID,0.0,
2019-02-22, 01:09:06,VALID,919.419,VALID,0.0,VALID,96.923,VALID,-0.008,VALID,20.703,VALID,135.0,VALID,0.0,
2019-02-22, 01:10:06,VALID,919.437,VALID,0.0,VALID,97.032,VALID,-0.003,VALID,20.694,VALID,131.0,VALID,0.0,
2019-02-22, 01:11:06,VALID,919.451,VALID,0.0,VALID,97.152,VALID,-0.01,VALID,20.689,VALID,125.0,VALID,0.0,
2019-02-22, 01:12:06,VALID,919.461,VALID,0.0,VALID,97.223,VALID,-0.016,VALID,20.685,VALID,128.0,VALID,0.0,
2019-02-22, 01:13:06,VALID,919.47,VALID,0.0,VALID,97.254,VALID,0.013,VALID,20.672,VALID,134.0,VALID,0.0,
2019-02-22, 01:14:06,VALID,919.505,VALID,0.0,VALID,97.288,VALID,0.005,VALID,20.664,VALID,141.0,VALID,0.0,
2019-02-22, 01:15:06,VALID,919.526,VALID,0.0,VALID,97.362,VALID,-0.007,VALID,20.666,VALID,145.0,VALID,0.0,
2019-02-22, 01:16:06,VALID,919.564,VALID,0.0,VALID,97.404,VALID,-0.001,VALID,20.654,VALID,142.0,VALID,0.0,
2019-02-22, 01:17:06,VALID,919.588,VALID,0.0,VALID,97.491,VALID,-0.01,VALID,20.65,VALID,168.0,VALID,0.0,
2019-02-22, 01:18:06,VALID,919.589,VALID,0.0,VALID,97.559,VALID,-0.01,VALID,20.636,VALID,139.0,VALID,0.0,
2019-02-22, 01:19:06,VALID,919.6,VALID,0.0,VALID,97.682,VALID,-0.004,VALID,20.638,VALID,131.0,VALID,0.0,
2019-02-22, 01:20:06,VALID,919.591,VALID,0.0,VALID,97.748,VALID,0.008,VALID,20.634,VALID,124.0,VALID,0.0,
2019-02-22, 01:21:06,VALID,919.572,VALID,0.0,VALID,97.606,VALID,-0.008,VALID,20.596,VALID,121.0,VALID,0.0,
2019-02-22, 01:22:06,VALID,919.535,VALID,0.0,VALID,97.525,VALID,-0.024,VALID,20.602,VALID,117.0,VALID,0.0,
2019-02-22, 01:23:06,VALID,919.47,VALID,0.0,VALID,97.385,VALID,-0.001,VALID,20.602,VALID,119.0,VALID,0.0,
2019-02-22, 01:24:06,VALID,919.423,VALID,0.0,VALID,97.21,VALID,-0.003,VALID,20.621,VALID,101.0,VALID,0.0,
2019-02-22, 01:25:06,VALID,919.368,VALID,0.0,VALID,97.1,VALID,-0.003,VALID,20.63,VALID,108.0,VALID,0.0,
2019-02-22, 01:26:06,VALID,919.31,VALID,0.0,VALID,97.037,VALID,-0.005,VALID,20.635,VALID,103.0,VALID,0.0,
2019-02-22, 01:27:06,VALID,919.26,VALID,0.0,VALID,96.889,VALID,-0.001,VALID,20.648,VALID,105.0,VALID,0.0,
2019-02-22, 01:28:06,VALID,919.239,VALID,0.0,VALID,96.74,VALID,0.003,VALID,20.672,VALID,90.0,VALID,0.0,
2019-02-22, 01:29:06,VALID,919.21,VALID,0.0,VALID,96.562,VALID,-0.008,VALID,20.69,VALID,86.0,VALID,0.0,
2019-02-22, 01:30:06,VALID,919.187,VALID,0.0,VALID,96.447,VALID,-0.007,VALID,20.717,VALID,70.0,VALID,0.0,
2019-02-22, 01:31:06,VALID,919.187,VALID,0.0,VALID,96.359,VALID,-0.01,VALID,20.712,VALID,80.0,VALID,0.0,
2019-02-22, 01:32:06,VALID,919.161,VALID,0.0,VALID,96.113,VALID,-0.014,VALID,20.749,VALID,84.0,VALID,0.0,
2019-02-22, 01:33:06,VALID,919.153,VALID,0.0,VALID,95.715,VALID,-0.009,VALID,20.818,VALID,74.0,VALID,0.0,
2019-02-22, 01:34:06,VALID,919.166,VALID,0.0,VALID,95.4,VALID,-0.007,VALID,20.842,VALID,84.0,VALID,0.0,
2019-02-22, 01:35:06,VALID,919.157,VALID,0.0,VALID,95.29,VALID,-0.011,VALID,20.85,VALID,86.0,VALID,0.0,
2019-02-22, 01:36:06,VALID,919.127,VALID,0.0,VALID,95.338,VALID,-0.015,VALID,20.822,VALID,94.0,VALID,0.0,
2019-02-22, 01:37:06,VALID,919.103,VALID,0.0,VALID,95.597,VALID,-0.013,VALID,20.769,VALID,111.0,VALID,0.0,
2019-02-22, 01:38:06,VALID,919.098,VALID,0.0,VALID,95.846,VALID,-0.039,VALID,20.724,VALID,111.0,VALID,0.0,
2019-02-22, 01:39:06,VALID,919.091,VALID,0.0,VALID,95.971,VALID,-0.032,VALID,20.688,VALID,103.0,VALID,0.0,
2019-02-22, 01:40:06,VALID,919.088,VALID,0.0,VALID,95.981,VALID,-0.023,VALID,20.692,VALID,104.0,VALID,0.0,
2019-02-22, 01:41:06,VALID,919.083,VALID,0.0,VALID,95.836,VALID,-0.021,VALID,20.694,VALID,100.0,VALID,0.0,
2019-02-22, 01:42:06,VALID,919.089,VALID,0.0,VALID,95.825,VALID,-0.025,VALID,20.676,VALID,102.0,VALID,0.0,
2019-02-22, 01:43:06,VALID,919.051,VALID,0.0,VALID,95.86,VALID,0.005,VALID,20.638,VALID,106.0,VALID,0.0,
2019-02-22, 01:44:06,VALID,919.028,VALID,0.0,VALID,96.03,VALID,-0.003,VALID,20.625,VALID,93.0,VALID,0.0,
2019-02-22, 01:45:06,VALID,919.013,VALID,0.0,VALID,96.059,VALID,0.001,VALID,20.595,VALID,78.0,VALID,0.0,
2019-02-22, 01:46:06,VALID,918.998,VALID,0.0,VALID,96.27,VALID,-0.01,VALID,20.577,VALID,83.0,VALID,0.0,
2019-02-22, 01:47:06,VALID,918.956,VALID,0.0,VALID,96.326,VALID,0.014,VALID,20.564,VALID,95.0,VALID,0.0,
2019-02-22, 01:48:06,VALID,918.913,VALID,0.0,VALID,96.255,VALID,-0.003,VALID,20.553,VALID,93.0,VALID,0.0,
2019-02-22, 01:49:06,VALID,918.894,VALID,0.0,VALID,96.339,VALID,0.008,VALID,20.551,VALID,74.0,VALID,0.0,
2019-02-22, 01:50:06,VALID,918.868,VALID,0.0,VALID,96.421,VALID,0.005,VALID,20.56,VALID,72.0,VALID,0.0,
2019-02-22, 01:51:06,VALID,918.819,VALID,0.0,VALID,96.406,VALID,-0.003,VALID,20.559,VALID,83.0,VALID,0.0,
2019-02-22, 01:52:06,VALID,918.756,VALID,0.0,VALID,96.324,VALID,0.006,VALID,20.586,VALID,87.0,VALID,0.0,
2019-02-22, 01:53:06,VALID,918.729,VALID,0.0,VALID,96.103,VALID,-0.002,VALID,20.606,VALID,70.0,VALID,0.0,
2019-02-22, 01:54:06,VALID,918.69,VALID,0.0,VALID,95.977,VALID,-0.0,VALID,20.594,VALID,34.0,VALID,0.0,
2019-02-22, 01:55:06,VALID,918.674,VALID,0.0,VALID,96.162,VALID,0.006,VALID,20.565,VALID,15.0,VALID,0.0,
2019-02-22, 01:56:06,VALID,918.643,VALID,0.0,VALID,96.501,VALID,-0.003,VALID,20.501,VALID,31.0,VALID,0.0,
2019-02-22, 01:57:06,VALID,918.643,VALID,0.0,VALID,96.847,VALID,-0.015,VALID,20.425,VALID,40.0,VALID,0.0,
2019-02-22, 01:58:06,VALID,918.637,VALID,0.0,VALID,97.17,VALID,0.01,VALID,20.376,VALID,56.0,VALID,0.0,
2019-02-22, 01:59:06,VALID,918.646,VALID,0.0,VALID,97.398,VALID,0.015,VALID,20.325,VALID,64.0,VALID,0.0,
2019-02-22, 02:00:06,VALID,918.638,VALID,0.0,VALID,97.615,VALID,0.025,VALID,20.313,VALID,65.0,VALID,0.0,
2019-02-22, 02:01:06,VALID,918.627,VALID,0.0,VALID,97.785,VALID,0.008,VALID,20.296,VALID,71.0,VALID,0.0,
2019-02-22, 02:02:06,VALID,918.632,VALID,0.0,VALID,97.859,VALID,0.017,VALID,20.277,VALID,76.0,VALID,0.0,
2019-02-22, 02:03:06,VALID,918.638,VALID,0.0,VALID,97.946,VALID,0.007,VALID,20.274,VALID,88.0,VALID,0.0,
2019-02-22, 02:04:06,VALID,918.638,VALID,0.0,VALID,97.936,VALID,0.019,VALID,20.243,VALID,97.0,VALID,0.0,
2019-02-22, 02:05:06,VALID,918.644,VALID,0.0,VALID,97.95,VALID,0.02,VALID,20.234,VALID,102.0,VALID,0.0,
2019-02-22, 02:06:06,VALID,918.655,VALID,0.0,VALID,97.978,VALID,0.023,VALID,20.244,VALID,114.0,VALID,0.0,
2019-02-22, 02:07:06,VALID,918.666,VALID,0.0,VALID,97.936,VALID,0.031,VALID,20.26,VALID,117.0,VALID,0.0,
2019-02-22, 02:08:06,VALID,918.699,VALID,0.0,VALID,97.887,VALID,0.02,VALID,20.271,VALID,143.0,VALID,0.0,
2019-02-22, 02:09:06,VALID,918.725,VALID,0.0,VALID,97.723,VALID,0.017,VALID,20.252,VALID,159.0,VALID,0.0,
2019-02-22, 02:10:06,VALID,918.729,VALID,0.0,VALID,97.609,VALID,0.018,VALID,20.251,VALID,170.0,VALID,0.0,
2019-02-22, 02:11:06,VALID,918.763,VALID,0.0,VALID,97.616,VALID,0.018,VALID,20.302,VALID,173.0,VALID,0.0,
2019-02-22, 02:12:06,VALID,918.77,VALID,0.0,VALID,97.617,VALID,0.009,VALID,20.386,VALID,170.0,VALID,0.0,
2019-02-22, 02:13:06,VALID,918.77,VALID,0.0,VALID,97.413,VALID,-0.024,VALID,20.436,VALID,202.0,VALID,0.0,
2019-02-22, 02:14:06,VALID,918.768,VALID,0.0,VALID,97.209,VALID,-0.024,VALID,20.492,VALID,179.0,VALID,0.0,
2019-02-22, 02:15:06,VALID,918.802,VALID,0.0,VALID,96.95,VALID,-0.026,VALID,20.517,VALID,193.0,VALID,0.0,
2019-02-22, 02:16:06,VALID,918.799,VALID,0.0,VALID,96.74,VALID,-0.038,VALID,20.522,VALID,192.0,VALID,0.0,
2019-02-22, 02:17:06,VALID,918.803,VALID,0.0,VALID,96.771,VALID,-0.022,VALID,20.519,VALID,209.0,VALID,0.0,
2019-02-22, 02:18:06,VALID,918.796,VALID,0.0,VALID,96.961,VALID,-0.029,VALID,20.517,VALID,277.0,VALID,0.0,
2019-02-22, 02:19:06,VALID,918.776,VALID,0.0,VALID,97.122,VALID,-0.018,VALID,20.487,VALID,311.0,VALID,0.0,
2019-02-22, 02:20:06,VALID,918.779,VALID,0.0,VALID,97.225,VALID,-0.013,VALID,20.449,VALID,306.0,VALID,0.0,
2019-02-22, 02:21:06,VALID,918.746,VALID,0.0,VALID,97.388,VALID,-0.014,VALID,20.433,VALID,270.0,VALID,0.0,
2019-02-22, 02:22:06,VALID,918.757,VALID,0.0,VALID,97.508,VALID,-0.023,VALID,20.393,VALID,270.0,VALID,0.0,
2019-02-22, 02:23:06,VALID,918.745,VALID,0.0,VALID,97.708,VALID,-0.027,VALID,20.378,VALID,274.0,VALID,0.0,
2019-02-22, 02:24:06,VALID,918.734,VALID,0.0,VALID,97.805,VALID,-0.038,VALID,20.364,VALID,275.0,VALID,0.0,
2019-02-22, 02:25:06,VALID,918.757,VALID,0.0,VALID,97.904,VALID,-0.02,VALID,20.346,VALID,275.0,VALID,0.0,
2019-02-22, 02:26:06,VALID,918.748,VALID,0.0,VALID,97.975,VALID,-0.028,VALID,20.334,VALID,278.0,VALID,0.0,
2019-02-22, 02:27:06,VALID,918.747,VALID,0.0,VALID,97.899,VALID,-0.019,VALID,20.236,VALID,279.0,VALID,0.0,
2019-02-22, 02:28:06,VALID,918.755,VALID,0.0,VALID,97.877,VALID,-0.01,VALID,20.183,VALID,279.0,VALID,0.0,
2019-02-22, 02:29:06,VALID,918.743,VALID,0.0,VALID,97.913,VALID,-0.025,VALID,20.138,VALID,279.0,VALID,0.0,
2019-02-22, 02:30:06,VALID,918.732,VALID,0.0,VALID,97.973,VALID,-0.006,VALID,20.134,VALID,279.0,VALID,0.0,
2019-02-22, 02:31:06,VALID,918.728,VALID,0.0,VALID,98.081,VALID,-0.008,VALID,20.151,VALID,279.0,VALID,0.0,
2019-02-22, 02:32:06,VALID,918.702,VALID,0.0,VALID,98.132,VALID,-0.01,VALID,20.156,VALID,279.0,VALID,0.0,
2019-02-22, 02:33:06,VALID,918.691,VALID,0.0,VALID,98.172,VALID,-0.009,VALID,20.152,VALID,279.0,VALID,0.0,
2019-02-22, 02:34:06,VALID,918.673,VALID,0.0,VALID,98.205,VALID,-0.019,VALID,20.153,VALID,279.0,VALID,0.0,
2019-02-22, 02:35:06,VALID,918.687,VALID,0.0,VALID,98.185,VALID,-0.01,VALID,20.118,VALID,230.0,VALID,0.0,
2019-02-22, 02:36:06,VALID,918.68,VALID,0.0,VALID,98.327,VALID,-0.01,VALID,20.166,VALID,177.0,VALID,0.0,
2019-02-22, 02:37:06,VALID,918.711,VALID,0.0,VALID,98.409,VALID,-0.024,VALID,20.217,VALID,179.0,VALID,0.0,
2019-02-22, 02:38:06,VALID,918.717,VALID,0.0,VALID,98.449,VALID,-0.019,VALID,20.25,VALID,168.0,VALID,0.0,
2019-02-22, 02:39:06,VALID,918.733,VALID,0.0,VALID,98.403,VALID,-0.016,VALID,20.247,VALID,171.0,VALID,0.0,
2019-02-22, 02:40:06,VALID,918.735,VALID,0.0,VALID,98.339,VALID,-0.021,VALID,20.213,VALID,161.0,VALID,0.0,
2019-02-22, 02:41:06,VALID,918.759,VALID,0.0,VALID,98.355,VALID,-0.025,VALID,20.229,VALID,164.0,VALID,0.0,
2019-02-22, 02:42:06,VALID,918.76,VALID,0.0,VALID,98.366,VALID,-0.027,VALID,20.256,VALID,164.0,VALID,0.0,
2019-02-22, 02:43:06,VALID,918.739,VALID,0.0,VALID,98.336,VALID,-0.01,VALID,20.287,VALID,164.0,VALID,0.0,
2019-02-22, 02:44:06,VALID,918.736,VALID,0.0,VALID,98.246,VALID,-0.022,VALID,20.302,VALID,164.0,VALID,0.0,
2019-02-22, 02:45:06,VALID,918.701,VALID,0.0,VALID,98.206,VALID,-0.031,VALID,20.329,VALID,164.0,VALID,0.0,
2019-02-22, 02:46:06,VALID,918.691,VALID,0.0,VALID,98.038,VALID,-0.037,VALID,20.288,VALID,163.0,VALID,0.0,
2019-02-22, 02:47:06,VALID,918.7,VALID,0.0,VALID,97.767,VALID,-0.017,VALID,20.185,VALID,99.0,VALID,0.0,
2019-02-22, 02:48:06,VALID,918.701,VALID,0.0,VALID,97.733,VALID,-0.012,VALID,20.167,VALID,71.0,VALID,0.0,
2019-02-22, 02:49:06,VALID,918.706,VALID,0.0,VALID,97.841,VALID,-0.018,VALID,20.208,VALID,26.0,VALID,0.0,
2019-02-22, 02:50:06,VALID,918.724,VALID,0.0,VALID,97.946,VALID,-0.019,VALID,20.235,VALID,20.0,VALID,0.0,
2019-02-22, 02:51:06,VALID,918.752,VALID,0.0,VALID,98.052,VALID,0.001,VALID,20.258,VALID,16.0,VALID,0.0,
2019-02-22, 02:52:06,VALID,918.755,VALID,0.0,VALID,98.088,VALID,-0.018,VALID,20.252,VALID,15.0,VALID,0.0,
2019-02-22, 02:53:06,VALID,918.762,VALID,0.0,VALID,98.111,VALID,-0.017,VALID,20.239,VALID,14.0,VALID,0.0,
2019-02-22, 02:54:06,VALID,918.763,VALID,0.0,VALID,98.191,VALID,-0.027,VALID,20.252,VALID,12.0,VALID,0.0,
2019-02-22, 02:55:06,VALID,918.759,VALID,0.0,VALID,98.252,VALID,-0.025,VALID,20.285,VALID,11.0,VALID,0.0,
2019-02-22, 02:56:06,VALID,918.746,VALID,0.0,VALID,98.327,VALID,-0.006,VALID,20.316,VALID,11.0,VALID,0.0,
2019-02-22, 02:57:06,VALID,918.707,VALID,0.0,VALID,98.359,VALID,-0.003,VALID,20.328,VALID,11.0,VALID,0.0,
2019-02-22, 02:58:06,VALID,918.639,VALID,0.0,VALID,98.4,VALID,-0.034,VALID,20.346,VALID,32.0,VALID,0.0,
2019-02-22, 02:59:06,VALID,918.61,VALID,0.0,VALID,98.403,VALID,-0.023,VALID,20.34,VALID,81.0,VALID,0.0,
2019-02-22, 03:00:06,VALID,918.566,VALID,0.0,VALID,98.356,VALID,-0.021,VALID,20.316,VALID,87.0,VALID,0.0,
2019-02-22, 03:01:06,VALID,918.529,VALID,0.0,VALID,98.343,VALID,-0.023,VALID,20.322,VALID,88.0,VALID,0.0,
2019-02-22, 03:02:06,VALID,918.526,VALID,0.0,VALID,98.271,VALID,-0.017,VALID,20.352,VALID,88.0,VALID,0.0,
2019-02-22, 03:03:06,VALID,918.523,VALID,0.0,VALID,98.153,VALID,-0.018,VALID,20.386,VALID,89.0,VALID,0.0,
2019-02-22, 03:04:06,VALID,918.542,VALID,0.0,VALID,97.952,VALID,-0.022,VALID,20.409,VALID,82.0,VALID,0.0,
2019-02-22, 03:05:06,VALID,918.574,VALID,0.0,VALID,97.778,VALID,-0.026,VALID,20.43,VALID,71.0,VALID,0.0,
2019-02-22, 03:06:06,VALID,918.599,VALID,0.0,VALID,97.656,VALID,-0.021,VALID,20.438,VALID,67.0,VALID,0.0,
2019-02-22, 03:07:06,VALID,918.617,VALID,0.0,VALID,97.546,VALID,-0.015,VALID,20.419,VALID,68.0,VALID,0.0,
2019-02-22, 03:08:06,VALID,918.629,VALID,0.0,VALID,97.519,VALID,-0.026,VALID,20.408,VALID,74.0,VALID,0.0,
2019-02-22, 03:09:06,VALID,918.631,VALID,0.0,VALID,97.549,VALID,-0.018,VALID,20.406,VALID,85.0,VALID,0.0,
2019-02-22, 03:10:06,VALID,918.653,VALID,0.0,VALID,97.557,VALID,-0.049,VALID,20.398,VALID,105.0,VALID,0.0,
2019-02-22, 03:11:06,VALID,918.61,VALID,0.0,VALID,97.622,VALID,-0.029,VALID,20.397,VALID,106.0,VALID,0.0,
2019-02-22, 03:12:06,VALID,918.566,VALID,0.0,VALID,97.712,VALID,-0.029,VALID,20.383,VALID,113.0,VALID,0.0,
2019-02-22, 03:13:06,VALID,918.532,VALID,0.0,VALID,97.815,VALID,-0.007,VALID,20.373,VALID,101.0,VALID,0.0,
2019-02-22, 03:14:06,VALID,918.47,VALID,0.0,VALID,97.921,VALID,0.007,VALID,20.361,VALID,108.0,VALID,0.0,
2019-02-22, 03:15:06,VALID,918.47,VALID,0.0,VALID,98.0,VALID,0.01,VALID,20.348,VALID,101.0,VALID,0.0,
2019-02-22, 03:16:06,VALID,918.436,VALID,0.0,VALID,98.096,VALID,-0.001,VALID,20.36,VALID,80.0,VALID,0.0,
2019-02-22, 03:17:06,VALID,918.425,VALID,0.0,VALID,98.165,VALID,-0.003,VALID,20.364,VALID,56.0,VALID,0.0,
2019-02-22, 03:18:06,VALID,918.42,VALID,0.0,VALID,98.209,VALID,0.002,VALID,20.348,VALID,42.0,VALID,0.0,
2019-02-22, 03:19:06,VALID,918.418,VALID,0.0,VALID,98.212,VALID,0.004,VALID,20.309,VALID,43.0,VALID,0.0,
2019-02-22, 03:20:06,VALID,918.405,VALID,0.0,VALID,98.246,VALID,0.007,VALID,20.274,VALID,47.0,VALID,0.0,
2019-02-22, 03:21:06,VALID,918.397,VALID,0.0,VALID,98.243,VALID,-0.001,VALID,20.25,VALID,46.0,VALID,0.0,
2019-02-22, 03:22:06,VALID,918.388,VALID,0.0,VALID,98.287,VALID,0.006,VALID,20.231,VALID,59.0,VALID,0.0,
2019-02-22, 03:23:06,VALID,918.365,VALID,0.0,VALID,98.332,VALID,0.013,VALID,20.235,VALID,64.0,VALID,0.0,
2019-02-22, 03:24:06,VALID,918.317,VALID,0.0,VALID,98.363,VALID,0.021,VALID,20.242,VALID,72.0,VALID,0.0,
2019-02-22, 03:25:06,VALID,918.279,VALID,0.0,VALID,98.374,VALID,0.009,VALID,20.246,VALID,79.0,VALID,0.0,
2019-02-22, 03:26:06,VALID,918.274,VALID,0.0,VALID,98.365,VALID,0.01,VALID,20.234,VALID,92.0,VALID,0.0,
2019-02-22, 03:27:06,VALID,918.243,VALID,0.0,VALID,98.317,VALID,-0.004,VALID,20.214,VALID,101.0,VALID,0.0,
2019-02-22, 03:28:06,VALID,918.22,VALID,0.0,VALID,98.299,VALID,0.027,VALID,20.208,VALID,108.0,VALID,0.0,
2019-02-22, 03:29:06,VALID,918.228,VALID,0.0,VALID,98.273,VALID,0.028,VALID,20.191,VALID,116.0,VALID,0.0,
2019-02-22, 03:30:06,VALID,918.234,VALID,0.0,VALID,98.234,VALID,0.005,VALID,20.167,VALID,109.0,VALID,0.0,
2019-02-22, 03:31:06,VALID,918.233,VALID,0.0,VALID,98.21,VALID,0.022,VALID,20.159,VALID,106.0,VALID,0.0,
2019-02-22, 03:32:06,VALID,918.238,VALID,0.0,VALID,98.213,VALID,0.025,VALID,20.169,VALID,99.0,VALID,0.0,
2019-02-22, 03:33:06,VALID,918.221,VALID,0.0,VALID,98.207,VALID,0.008,VALID,20.176,VALID,99.0,VALID,0.0,
2019-02-22, 03:34:06,VALID,918.225,VALID,0.0,VALID,98.142,VALID,0.027,VALID,20.159,VALID,99.0,VALID,0.0,
2019-02-22, 03:35:06,VALID,918.203,VALID,0.0,VALID,98.126,VALID,0.043,VALID,20.149,VALID,89.0,VALID,0.0,
2019-02-22, 03:36:06,VALID,918.208,VALID,0.0,VALID,98.126,VALID,0.019,VALID,20.15,VALID,87.0,VALID,0.0,
2019-02-22, 03:37:06,VALID,918.208,VALID,0.0,VALID,98.118,VALID,0.035,VALID,20.134,VALID,93.0,VALID,0.0,
2019-02-22, 03:38:06,VALID,918.213,VALID,0.0,VALID,98.099,VALID,0.015,VALID,20.091,VALID,95.0,VALID,0.0,
2019-02-22, 03:39:06,VALID,918.233,VALID,0.0,VALID,98.067,VALID,0.014,VALID,20.05,VALID,105.0,VALID,0.0,
2019-02-22, 03:40:06,VALID,918.262,VALID,0.0,VALID,98.064,VALID,0.032,VALID,20.017,VALID,117.0,VALID,0.0,
2019-02-22, 03:41:06,VALID,918.273,VALID,0.0,VALID,98.142,VALID,0.026,VALID,20.026,VALID,136.0,VALID,0.0,
2019-02-22, 03:42:06,VALID,918.294,VALID,0.0,VALID,98.276,VALID,0.03,VALID,20.085,VALID,163.0,VALID,0.0,